This demonstration page uses our WeatherBlox Daily Observations layout. Learn more.

Left ArrowRight Arrow

39.12711, -84.51439

Hourly Observations for January 30, 2017

Temp ( °F °C ) Dew Point ( °F °C ) Humidity (%) Winds ( mph kmh ) Pressure ( in mb ) Visibility ( mi km ) Precip ( " mm )
12:53 am 00:53 Cloudy 28 -2.2 20 -6.7 72 72 W 8 13 29.95 1014 10 16 N/A
1:53 am 01:53 Cloudy 28 -2.2 21 -6.1 75 75 W 10 17 29.96 1014 10 16 N/A
2:53 am 02:53 Cloudy 28 -2.2 21 -6.1 75 75 W 9 15 29.96 1014 10 16 N/A
3:21 am 03:21 Cloudy 27 -2.8 19 -7.2 72 72 WNW 9 15 29.97 1015 10 16 N/A
3:53 am 03:53 Cloudy 27 -2.8 18 -7.8 69 69 WNW 8 13 29.96 1015 10 16 N/A
4:53 am 04:53 Mostly Cloudy 26 -3.3 16 -8.9 66 66 NW 12 19 29.98 1015 10 16 N/A
5:53 am 05:53 Mostly Cloudy 24 -4.4 17 -8.3 75 75 NNW 6 9 30.01 1016 10 16 N/A
6:53 am 06:53 Clear 24 -4.4 15 -9.4 68 68 NW 8 13 30.03 1017 10 16 N/A
7:53 am 07:53 Sunny 23 -5 15 -9.4 72 72 NW 8 13 30.06 1018 10 16 N/A
8:53 am 08:53 Sunny 25 -3.9 15 -9.4 66 66 W 12 19 30.08 1019 10 16 N/A
9:53 am 09:53 Sunny 27 -2.8 14 -10 58 58 W 9 15 30.09 1019 10 16 N/A
10:53 am 10:53 Sunny 28 -2.2 12 -11.1 51 51 WSW 9 15 30.10 1019 10 16 N/A
11:53 am 11:53 Sunny 30 -1.1 14 -10 51 51 WSW 17 28 30.11 1020 10 16 N/A
12:53 pm 12:53 Mostly Sunny 32 undefined 14 -10 47 47 W 14 22 30.09 1019 10 16 N/A
1:53 pm 13:53 Sunny 33 0.6 14 -10 45 45 SW 14 22 30.05 1018 10 16 N/A
2:53 pm 14:53 Sunny 33 0.6 13 -10.6 43 43 SW 12 19 30.04 1017 10 16 N/A
3:53 pm 15:53 Mostly Sunny 34 1.1 16 -8.9 48 48 SSW 13 20 30.03 1017 10 16 N/A
4:53 pm 16:53 Mostly Cloudy 33 0.6 16 -8.9 49 49 SSW 10 17 30.03 1017 10 16 N/A
5:53 pm 17:53 Mostly Cloudy 33 0.6 17 -8.3 52 52 S 8 13 30.03 1017 10 16 N/A
6:53 pm 18:53 Partly Cloudy 32 undefined 16 -8.9 52 52 S 6 9 30.01 1016 10 16 N/A
7:53 pm 19:53 Mostly Clear 31 -0.6 17 -8.3 56 56 S 6 9 29.95 1014 10 16 N/A
8:53 pm 20:53 Mostly Cloudy 32 undefined 18 -7.8 56 56 SSW 8 13 29.93 1013 10 16 N/A
9:53 pm 21:53 Clear 31 -0.6 19 -7.2 61 61 S 10 17 29.85 1011 10 16 N/A
10:53 pm 22:53 Clear 32 undefined 20 -6.7 61 61 SSW 9 15 29.83 1010 10 16 N/A
11:53 pm 23:53 Clear 32 undefined 20 -6.7 61 61 SSW 7 11 29.77 1008 10 16 N/A

Powered by AerisWeather